LUCH-5V

Last updated on Sun Nov 16 2025 00:03:42 GMT+0000 (Coordinated Universal Time)

1 39727U 14023A 25319.39957488 -.00000261 00000+0 00000+0 0 9999 2 39727 4.6003 71.7699 0003775 193.9683 27.6193 1.00272990 42210
UTC large
Height (km)
Speed (km/s)
/
Latitude / Longitude
Inclination (degrees)
Orbital Period (minutes)
Azimuth
Elevation
Range (km)
Doppler Factor

Next 0 passes for location: London (51.5072 / 0.1276)

Sorry there are no passes over London.